Wind_Speed
37 37 34 32 35 36 37 36 33 33 35 33 34 33 32 29 29 28 27 27 27 27 27 28 28 28 28 28 27 28 28 27 27 27 27 28 28 29 30 32 34 36 38 40
41 39 35 37 38 38 38 37 34 35 38 37 37 36 34 33 30 31 31 31 31 30 30 30 30 29 30 30 29 29 29 29 29 29 30 30 31 32 34 36 38 40 42 44
44 42 39 40 40 40 38 38 36 37 41 40 40 39 35 34 33 32 33 35 34 33 33 32 31 31 31 31 32 31 31 31 31 31 32 32 34 35 37 39 41 43 46 48
47 44 42 40 40 39 40 39 38 39 42 43 42 43 34 34 35 33 34 38 38 35 34 34 33 33 33 34 34 33 33 33 33 34 35 36 37 39 41 43 45 47 49 51
47 45 44 42 40 40 41 39 39 40 43 46 43 45 38 34 35 32 34 39 40 37 36 35 35 35 35 35 35 35 35 35 36 37 38 39 41 43 45 47 49 50 52 54
48 48 45 42 39 39 41 40 41 43 45 49 41 45 46 37 35 34 35 39 40 39 38 37 37 37 37 37 37 37 37 37 38 39 40 42 44 46 48 50 52 54 55 57
48 48 45 41 39 40 40 41 44 46 48 49 45 48 48 42 38 36 37 38 40 40 39 39 39 39 39 39 38 38 38 39 40 42 44 46 47 49 52 54 55 57 58 61
46 45 43 40 39 40 41 43 45 47 50 51 51 51 47 44 41 38 37 37 38 39 40 39 39 39 39 39 39 40 40 41 43 45 47 49 51 53 55 57 58 60 61 63
46 46 44 42 41 43 45 45 44 49 53 55 55 54 51 47 43 39 37 37 38 39 39 39 39 39 40 40 41 41 43 44 46 49 51 53 55 56 58 60 61 62 64 66
51 53 52 49 48 48 49 48 49 52 55 58 58 56 54 51 47 43 38 35 35 36 37 38 39 40 41 42 43 44 45 48 50 52 54 56 57 59 61 62 64 65 67 68
54 55 57 54 51 50 51 53 53 54 57 60 61 58 55 54 51 45 39 36 35 35 36 37 39 41 42 43 45 47 49 51 53 55 57 59 60 62 64 65 66 67 69 71
56 58 59 58 56 55 57 56 55 56 57 58 60 58 56 54 52 47 41 37 35 36 37 39 41 42 44 46 48 50 52 54 56 58 60 61 63 64 66 67 69 70 72 74
59 61 61 62 63 61 59 57 56 56 56 58 59 56 53 50 48 44 40 38 38 39 40 41 43 45 47 49 51 54 55 57 59 61 63 64 65 67 68 69 71 73 74 76
63 65 65 64 62 62 61 59 57 57 59 58 56 52 49 47 45 41 40 40 41 42 43 45 47 49 51 53 55 57 59 61 62 64 65 66 67 69 70 72 73 75 76 79
63 64 63 62 61 62 64 63 61 61 60 59 55 52 47 46 45 44 44 43 44 45 48 50 52 53 55 56 58 60 62 63 65 66 67 68 69 70 72 73 75 77 78 80
61 61 60 61 60 61 62 63 65 64 61 58 56 53 45 44 47 48 47 46 48 50 53 55 56 57 59 60 62 63 64 65 67 68 68 69 71 72 73 75 77 78 79 81
60 60 59 59 57 59 63 60 59 60 57 54 55 50 45 47 49 49 49 51 52 54 56 58 59 61 63 64 65 66 66 67 68 68 69 70 71 73 75 76 77 78 79 80
60 59 59 58 59 65 60 54 55 57 56 55 54 50 49 50 51 52 53 54 55 57 59 61 63 64 65 66 67 67 68 68 68 68 69 70 72 74 75 76 77 78 79 80
60 59 60 61 64 66 59 57 57 58 58 55 57 56 56 55 56 57 57 57 58 60 62 63 65 66 66 67 67 68 68 68 68 68 69 71 73 74 75 75 76 78 79 78
62 62 63 65 69 70 60 58 59 61 62 55 57 57 58 58 60 58 58 59 61 62 62 63 65 65 66 67 67 67 67 66 67 68 70 72 72 73 74 75 76 77 77 76
64 64 66 67 70 70 62 61 63 65 61 60 60 60 59 60 60 59 60 61 61 61 62 63 64 65 65 65 65 65 65 65 67 69 70 70 71 73 74 75 76 76 75 74
67 67 67 67 69 68 63 63 64 64 63 63 62 61 61 61 61 61 61 61 61 60 61 62 62 63 63 63 64 64 65 66 68 69 69 70 71 73 74 74 74 73 72 71
68 68 68 68 69 66 65 64 65 64 64 64 63 63 63 62 62 61 61 60 60 60 60 61 62 62 62 63 63 64 66 67 68 68 69 70 72 73 73 73 72 70 69 69
64 64 65 66 66 64 63 63 63 63 63 63 62 62 62 62 61 61 60 59 60 60 60 61 62 62 63 63 65 65 66 67 68 69 70 71 72 72 72 71 69 68 68 67
60 61 61 61 61 60 60 59 58 58 58 59 60 60 60 60 59 59 59 59 59 60 61 62 62 63 63 65 66 66 67 68 69 70 71 71 71 70 69 68 67 67 67 67
56 56 56 56 56 56 55 55 55 54 55 55 56 56 57 57 57 58 59 59 60 61 62 62 63 64 65 66 66 67 67 68 69 70 70 70 69 68 67 67 67 67 67 67
Wind_Direction
267 269 272 272 271 273 275 277 277 275 274 271 269 268 268 265 264 265 266 269 272 274 275 273 272 270 268 267 267 268 269 270 271 273 275 278 282 285 288 290 292 294 295 296
268 271 271 270 272 274 274 274 273 271 271 270 268 267 266 266 264 264 266 268 270 272 273 272 270 268 267 266 266 267 267 269 271 274 278 281 284 287 290 292 294 295 296 297
270 271 270 271 272 272 271 271 269 268 270 269 269 267 264 265 266 265 267 269 269 270 271 270 268 267 266 267 267 267 268 269 272 276 279 282 285 288 290 293 295 296 297 298
269 272 271 270 269 270 268 266 267 267 269 271 269 269 262 265 266 267 269 270 269 269 269 268 267 266 266 266 266 267 268 270 273 277 280 283 286 289 292 294 296 297 298 299
269 269 268 267 266 266 267 268 267 265 265 267 268 273 271 267 268 270 269 268 269 269 268 266 266 267 267 267 267 268 269 272 275 278 282 285 288 291 293 295 297 298 298 299
266 267 267 266 265 264 265 265 265 265 265 265 268 273 273 272 273 272 271 269 269 268 267 265 266 266 267 267 268 269 271 274 277 281 284 287 290 292 294 295 296 297 298 299
264 264 264 263 261 260 261 262 264 264 265 268 270 269 273 276 277 276 274 272 269 267 266 265 265 266 267 268 269 270 273 276 279 282 285 288 290 292 293 295 296 298 299 300
261 259 261 261 259 258 256 257 260 266 269 270 270 271 274 276 279 280 277 273 269 266 265 264 265 266 267 268 269 272 275 278 281 284 286 288 290 292 293 295 296 298 299 300
260 260 257 255 253 255 256 258 263 266 269 272 274 276 277 279 282 282 277 270 267 265 265 264 265 266 267 268 271 273 276 279 282 285 287 289 291 292 294 295 296 297 299 300
259 260 259 257 256 257 261 263 264 266 271 274 275 276 280 282 282 281 278 273 267 265 265 265 265 266 268 270 272 275 278 280 283 286 288 290 291 293 294 296 297 298 300 301
257 258 260 260 259 262 263 264 266 268 270 273 277 279 281 283 281 280 278 274 269 267 265 264 265 267 269 271 274 277 280 282 285 287 289 291 292 294 295 296 297 299 300 302
256 258 259 261 262 262 262 265 269 272 275 276 276 276 277 278 279 280 279 275 271 268 266 266 267 269 271 274 277 280 282 285 287 289 291 292 293 294 295 296 298 300 301 302
255 257 259 260 262 263 267 271 273 275 274 273 273 276 279 279 277 276 275 273 270 269 269 270 272 273 275 278 280 283 285 287 289 290 291 293 294 295 295 297 299 300 302 303
256 257 258 260 265 270 271 271 271 272 272 273 274 277 276 274 272 270 269 269 269 271 273 274 275 277 279 281 284 285 287 288 290 291 292 293 294 295 296 298 299 301 302 302
257 259 261 263 265 267 269 270 270 270 271 272 273 272 271 270 270 269 269 269 272 274 275 275 277 279 282 284 285 286 288 289 290 291 292 293 294 295 297 298 300 301 302 301
262 263 263 263 264 265 265 266 268 269 269 271 272 270 270 270 269 269 271 272 273 274 275 277 279 281 283 284 286 287 288 289 290 291 292 292 294 296 297 299 300 301 300 300
262 263 264 262 261 262 260 262 266 269 270 269 267 268 268 267 268 270 271 271 273 274 277 279 281 282 283 284 285 286 287 288 289 290 291 293 294 295 297 298 299 299 299 299
260 262 263 263 261 261 260 262 263 263 264 266 267 267 267 268 269 269 270 271 273 275 277 278 279 280 281 282 283 284 285 286 288 289 291 292 294 295 297 297 297 297 297 298
257 259 261 262 264 265 260 260 263 266 264 264 267 267 268 269 270 270 272 273 274 275 276 277 277 278 279 280 281 282 284 285 287 289 290 292 294 295 296 296 296 296 297 297
255 256 258 260 262 264 263 264 266 268 265 264 268 270 271 271 272 274 275 274 274 274 275 275 275 276 277 278 279 281 283 286 287 289 290 292 293 294 294 294 294 295 296 296
255 257 258 259 262 264 266 267 269 269 270 269 271 273 273 274 274 274 273 274 274 274 273 273 273 274 276 277 280 282 285 287 288 289 291 292 292 292 293 293 294 294 294 295
256 258 259 261 263 265 267 268 268 271 271 271 272 273 274 274 274 274 274 274 273 273 272 272 273 275 277 280 282 285 286 287 288 290 290 290 290 291 291 292 292 293 293 294
255 257 259 260 262 264 265 266 268 269 270 271 272 272 273 273 274 274 273 272 272 272 273 274 276 279 281 283 285 286 287 287 288 289 289 289 289 290 290 291 292 292 293 294
254 255 257 259 261 262 264 264 265 267 268 269 269 270 270 271 271 271 271 271 272 274 275 277 279 282 283 284 286 286 286 287 287 288 288 288 289 289 290 290 291 292 293 294
254 255 256 258 259 261 262 263 263 264 265 265 266 266 267 268 269 270 271 272 274 275 277 280 282 283 284 284 285 285 285 286 286 286 287 287 288 288 289 290 291 292 294 295
253 254 255 257 258 259 260 261 262 263 263 264 264 265 266 267 269 270 272 274 276 277 279 281 282 282 283 284 284 284 284 284 285 285 286 287 287 288 289 290 291 293 294 296
Height
5825 5827 5830 5831 5829 5829 5828 5829 5830 5829 5827 5829 5828 5829 5830 5832 5833 5833 5834 5834 5834 5835 5835 5834 5834 5834 5834 5834 5834 5834 5834 5834 5834 5833 5833 5833 5832 5831 5830 5829 5827 5825 5823 5820
5818 5820 5823 5821 5821 5821 5821 5821 5822 5821 5818 5820 5820 5821 5823 5824 5826 5827 5826 5827 5827 5828 5827 5827 5827 5827 5827 5827 5827 5827 5827 5827 5827 5826 5826 5825 5824 5823 5822 5820 5818 5816 5814 5811
5809 5813 5813 5813 5813 5813 5813 5814 5814 5813 5810 5811 5811 5812 5816 5817 5818 5820 5820 5819 5819 5820 5820 5819 5819 5819 5819 5819 5819 5819 5819 5819 5819 5819 5818 5817 5816 5815 5813 5811 5809 5806 5803 5800
5799 5802 5804 5805 5805 5804 5804 5805 5805 5805 5802 5801 5802 5800 5809 5811 5811 5813 5813 5811 5810 5812 5812 5811 5811 5811 5811 5811 5811 5811 5811 5811 5811 5810 5809 5808 5807 5805 5803 5801 5798 5795 5792 5789
5790 5792 5793 5795 5797 5796 5795 5796 5797 5796 5793 5792 5793 5791 5797 5803 5803 5806 5805 5802 5801 5803 5803 5803 5803 5803 5803 5802 5802 5802 5802 5802 5802 5801 5800 5799 5797 5795 5793 5790 5787 5784 5780 5776
5780 5781 5784 5786 5788 5787 5786 5788 5786 5785 5783 5781 5788 5785 5781 5792 5795 5796 5796 5793 5792 5793 5794 5794 5794 5794 5794 5794 5794 5794 5794 5793 5792 5791 5790 5788 5787 5784 5782 5779 5775 5772 5767 5763
5771 5770 5772 5776 5777 5778 5778 5778 5776 5774 5773 5772 5777 5775 5774 5781 5785 5786 5786 5785 5784 5784 5784 5785 5785 5785 5785 5785 5785 5785 5784 5784 5783 5781 5780 5778 5776 5773 5770 5766 5763 5758 5754 5749
5758 5760 5763 5766 5767 5767 5767 5767 5767 5766 5763 5763 5763 5763 5768 5770 5773 5775 5776 5775 5774 5775 5775 5775 5775 5775 5775 5775 5775 5775 5775 5774 5772 5771 5769 5767 5764 5761 5757 5753 5749 5745 5740 5735
5748 5749 5752 5755 5756 5755 5756 5757 5760 5756 5752 5751 5751 5752 5755 5759 5762 5763 5764 5764 5764 5765 5765 5765 5765 5766 5766 5766 5766 5765 5764 5763 5762 5760 5757 5755 5751 5748 5744 5740 5735 5730 5725 5720
5736 5736 5738 5741 5744 5745 5746 5748 5748 5746 5744 5740 5739 5741 5744 5747 5750 5752 5752 5753 5754 5755 5755 5755 5755 5755 5755 5755 5755 5754 5753 5752 5750 5748 5745 5741 5737 5733 5729 5725 5720 5714 5709 5703
5722 5723 5723 5727 5731 5735 5735 5735 5735 5735 5734 5732 5729 5732 5734 5734 5734 5738 5741 5742 5743 5744 5744 5744 5745 5745 5745 5744 5744 5743 5741 5739 5737 5734 5730 5727 5723 5718 5714 5709 5704 5698 5692 5686
5709 5709 5709 5713 5718 5719 5719 5721 5723 5724 5723 5722 5718 5720 5722 5723 5723 5726 5729 5730 5730 5731 5732 5732 5733 5733 5733 5732 5731 5730 5728 5725 5722 5719 5715 5711 5707 5703 5698 5693 5687 5681 5675 5668
5695 5693 5696 5698 5701 5703 5706 5710 5710 5710 5709 5706 5705 5710 5710 5712 5712 5714 5716 5717 5717 5718 5719 5720 5720 5720 5720 5719 5717 5716 5713 5710 5707 5703 5699 5695 5691 5686 5681 5676 5670 5663 5657 5649
5676 5676 5681 5685 5689 5689 5690 5693 5694 5693 5692 5693 5694 5698 5700 5699 5699 5701 5703 5704 5704 5705 5706 5707 5707 5706 5705 5704 5702 5700 5698 5694 5691 5687 5683 5679 5674 5669 5664 5658 5652 5645 5638 5631
5658 5662 5667 5672 5677 5675 5673 5675 5677 5677 5678 5679 5682 5684 5688 5688 5688 5689 5690 5691 5692 5692 5692 5692 5692 5691 5690 5689 5687 5684 5681 5678 5674 5671 5667 5663 5657 5652 5646 5640 5633 5626 5619 5611
5644 5648 5653 5655 5660 5659 5657 5660 5660 5661 5664 5665 5668 5671 5679 5677 5675 5675 5677 5678 5678 5678 5677 5677 5677 5676 5675 5673 5670 5668 5665 5662 5658 5654 5650 5645 5640 5635 5628 5622 5615 5608 5600 5592
5628 5632 5635 5638 5644 5639 5639 5650 5650 5649 5650 5653 5653 5661 5664 5661 5661 5662 5663 5663 5663 5663 5662 5662 5661 5660 5658 5656 5654 5651 5648 5645 5642 5637 5633 5628 5623 5616 5610 5603 5596 5589 5581 5573
5615 5617 5618 5621 5622 5616 5630 5640 5637 5634 5636 5639 5641 5647 5648 5648 5647 5646 5648 5648 5648 5648 5648 5647 5645 5643 5642 5640 5637 5635 5632 5629 5625 5621 5616 5611 5605 5599 5592 5585 5578 5570 5562 5554
5601 5603 5603 5604 5601 5601 5616 5622 5622 5619 5622 5630 5628 5630 5631 5632 5631 5632 5633 5634 5634 5632 5631 5630 5628 5627 5625 5622 5620 5617 5615 5612 5608 5604 5599 5593 5587 5581 5574 5567 5559 5551 5544 5536
5585 5586 5588 5587 5585 5585 5603 5607 5605 5601 5604 5618 5614 5615 5616 5615 5614 5619 5617 5615 5615 5614 5614 5612 5611 5609 5608 5605 5603 5600 5597 5594 5591 5586 5580 5575 5569 5562 5556 5548 5541 5533 5526 5518
5568 5569 5569 5571 5569 5571 5588 5589 5587 5585 5594 5598 5597 5597 5598 5598 5598 5600 5598 5597 5596 5596 5596 5595 5593 5592 5591 5588 5585 5582 5579 5576 5571 5566 5562 5556 5550 5544 5537 5530 5523 5515 5508 5501
5551 5553 5554 5556 5554 5560 5571 5571 5571 5571 5575 5577 5578 5578 5579 5579 5578 5579 5579 5579 5578 5578 5578 5577 5575 5574 5572 5570 5567 5564 5560 5556 5551 5548 5543 5537 5531 5525 5518 5512 5505 5498 5491 5484
5535 5538 5540 5542 5543 5547 5551 5553 5552 5555 5557 5559 5560 5560 5561 5561 5561 5561 5561 5561 5561 5560 5560 5558 5557 5555 5553 5551 5548 5545 5540 5536 5532 5528 5523 5517 5512 5506 5500 5493 5487 5480 5473 5466
5518 5522 5523 5524 5526 5529 5532 5534 5535 5538 5540 5541 5542 5543 5544 5543 5543 5544 5544 5544 5544 5543 5542 5541 5539 5537 5535 5532 5529 5525 5520 5516 5512 5508 5503 5498 5492 5487 5481 5474 5468 5462 5455 5448
5503 5505 5507 5507 5510 5512 5514 5517 5519 5521 5523 5524 5526 5527 5527 5527 5527 5528 5528 5527 5527 5526 5524 5523 5521 5519 5515 5512 5509 5505 5501 5497 5492 5488 5483 5478 5472 5467 5461 5456 5450 5443 5438 5430
5488 5490 5492 5494 5496 5498 5500 5502 5504 5506 5507 5508 5510 5510 5511 5511 5511 5511 5511 5510 5509 5508 5507 5505 5502 5500 5496 5493 5490 5486 5481 5477 5472 5468 5463 5458 5453 5448 5443 5437 5432 5424 5419 5413